Theta_e
350 349 351 351 351 350 348 347 345 345 351 348 349 351 348 351 344 345 344 342 346 351 354 355 349 352 355 354 354 354 353 344 335 339 338 346 351 349 347 347 344 347 351
349 349 349 352 351 352 352 352 349 350 353 351 349 348 349 350 352 352 350 345 349 355 354 352 354 350 352 354 354 354 350 349 351 350 349 351 352 351 348 348 349 344 345
350 349 349 348 351 353 351 352 349 347 351 350 350 346 347 352 354 354 352 355 353 354 354 354 355 351 353 353 353 350 340 346 346 347 348 343 346 350 352 344 350 350 350
347 350 350 350 349 349 347 352 350 349 349 350 346 347 350 350 353 354 354 349 354 352 354 354 354 353 353 351 346 341 343 347 349 351 349 347 344 352 350 347 351 350 345
349 348 350 352 351 349 349 351 350 349 348 350 352 353 353 352 353 352 352 349 354 354 352 351 351 351 352 349 346 343 346 349 350 348 350 348 344 346 348 348 348 345 347
348 349 349 350 352 352 351 349 347 352 348 352 350 352 352 352 352 349 349 352 353 354 352 354 351 351 349 341 342 343 347 346 347 349 347 345 344 348 345 343 343 346 347
349 348 351 351 352 350 352 352 352 353 347 354 353 353 353 351 349 351 352 353 354 354 353 353 354 353 341 340 337 342 343 344 344 346 346 346 347 350 347 346 344 343 343
344 350 350 351 351 352 352 352 352 352 352 351 352 351 351 348 352 352 353 353 353 353 354 354 353 352 347 341 337 344 345 347 346 347 346 345 346 347 349 348 347 347 346
346 346 348 349 350 352 352 352 352 352 351 352 348 347 346 349 351 351 353 353 352 353 353 353 351 345 345 344 339 344 345 346 347 346 342 344 342 346 346 346 347 347 347
345 344 346 347 343 348 349 351 347 351 352 351 349 348 344 344 347 348 344 352 352 353 353 348 345 342 341 342 342 343 344 344 344 341 343 341 344 345 346 343 342 340 340
346 344 344 345 345 347 347 349 346 347 348 349 349 344 346 347 350 347 349 346 352 351 347 344 342 341 340 339 342 342 344 342 341 340 342 335 338 341 339 333 332 332 333
343 343 345 343 345 345 344 348 348 348 348 351 348 350 349 348 348 349 347 346 345 345 341 341 343 346 349 349 347 347 346 342 341 339 342 333 333 335 328 322 326 328 328
343 344 345 345 345 346 347 350 349 350 350 351 348 350 348 348 349 347 347 347 347 346 345 343 345 351 349 345 343 343 342 341 341 340 337 332 331 330 332 328 329 329 323
343 344 346 346 348 348 349 350 350 350 349 349 352 354 351 350 350 348 347 348 347 350 346 346 346 348 346 346 344 343 342 341 342 345 339 335 333 332 331 332 331 330 330
343 344 347 348 350 350 351 351 350 345 348 350 350 350 351 349 350 351 350 347 348 348 347 346 349 350 348 346 344 346 343 344 344 344 349 345 337 333 333 332 333 333 332
343 344 348 350 350 351 353 352 349 351 347 351 349 352 349 348 350 350 350 348 346 346 346 346 350 350 348 345 345 346 346 346 346 347 346 350 348 345 338 334 334 333 333
343 345 348 348 351 352 354 354 353 350 351 349 353 352 353 351 352 349 347 346 345 347 348 351 352 347 346 345 345 345 347 346 346 347 347 346 352 349 347 345 339 335 334
342 345 347 347 351 352 354 353 353 351 348 350 350 352 352 353 352 348 347 345 347 349 348 347 350 346 346 345 346 346 345 346 346 348 346 345 345 350 350 348 346 345 339
343 347 349 349 350 351 353 353 353 354 350 351 350 351 353 353 353 350 347 351 353 349 349 347 347 350 345 346 345 344 346 346 347 346 348 350 349 347 346 348 348 347 344
345 350 350 350 351 352 352 354 351 353 351 350 352 354 355 354 354 352 350 353 355 348 350 350 355 347 350 347 347 344 346 347 348 348 348 348 348 348 349 349 350 350 346
347 351 351 352 353 353 352 351 350 351 351 351 356 355 356 355 355 355 351 353 357 351 357 353 350 349 347 347 350 347 347 346 346 343 343 344 346 347 348 350 352 349 348
348 351 352 352 355 354 350 350 352 351 350 353 354 355 355 355 356 354 353 353 355 354 355 356 355 349 347 349 351 350 348 348 344 339 340 341 340 342 343 345 347 349 350
349 351 353 353 355 353 351 352 356 354 353 352 353 352 353 354 355 354 353 353 355 356 352 356 355 351 352 349 351 351 355 353 346 342 342 340 344 342 343 344 345 347 348
349 351 352 354 356 355 355 352 352 355 350 347 347 348 351 354 354 354 354 354 355 349 351 353 353 355 349 349 349 348 349 349 345 340 339 341 344 342 344 343 342 344 345
347 349 352 354 356 355 355 355 355 351 349 349 349 353 353 354 354 352 354 356 359 353 349 353 353 354 351 349 345 343 345 344 343 340 343 340 340 342 342 343 346 348 348
346 347 349 354 357 357 356 360 356 353 351 347 350 353 352 355 355 355 355 359 361 357 352 352 354 356 355 354 351 345 339 339 340 339 340 341 342 342 342 344 345 346 348
Wind_Speed
13 11 12 11 11 12 13 13 14 13 13 13 11 11 12 13 14 17 18 17 15 17 18 19 20 21 19 18 18 18 20 20 22 22 22 20 18 17 16 12 16 14 15
17 13 13 12 12 11 11 11 12 12 13 12 11 12 12 13 13 14 15 17 16 17 18 19 18 18 19 19 18 19 19 18 17 18 21 21 18 17 17 17 16 15 14
19 14 13 13 14 12 11 10 10 11 11 11 11 12 12 14 13 13 14 16 16 17 17 17 17 17 18 18 18 18 19 17 12 8 10 15 15 17 16 15 15 13 13
19 18 14 13 13 13 12 11 9 10 11 11 12 13 12 13 14 14 13 15 16 16 16 16 16 15 16 17 17 17 19 19 17 14 19 16 16 15 14 14 13 12 12
18 18 14 13 14 14 13 12 10 12 12 13 12 13 14 14 14 14 14 16 15 15 16 15 14 14 14 12 12 13 15 14 14 14 15 17 14 12 12 11 13 10 10
19 18 13 14 14 13 12 13 13 14 13 13 13 13 13 14 14 14 14 14 15 15 15 14 13 13 12 10 12 14 14 13 12 16 16 15 13 12 13 12 12 11 9
22 16 14 14 14 14 13 14 14 13 13 12 12 11 12 13 13 14 13 14 14 14 15 14 13 13 14 15 14 16 17 16 13 13 15 13 12 11 12 12 12 11 11
19 17 15 14 15 15 14 13 13 13 12 11 11 12 12 13 13 13 13 13 13 14 14 14 15 14 14 14 14 14 10 9 15 16 15 13 13 12 11 11 11 10 9
19 18 15 13 13 14 14 13 13 12 12 11 10 10 11 11 11 11 12 12 13 13 13 13 13 13 12 13 15 15 14 13 17 16 15 12 9 10 10 11 11 12 12
16 17 17 13 13 13 12 12 13 11 10 9 9 9 9 9 10 10 12 12 12 12 12 11 10 11 12 13 14 12 10 9 13 14 13 11 12 12 12 11 10 11 11
17 16 15 14 14 14 12 11 11 9 8 8 8 8 9 9 10 9 11 11 12 11 11 10 11 12 15 19 13 11 10 11 13 13 11 12 12 11 12 13 13 13 13
17 16 18 15 14 13 15 11 10 10 6 6 7 7 5 8 11 13 10 11 11 10 10 10 11 9 11 8 8 3 5 9 15 12 10 12 11 12 14 13 14 14 13
17 16 16 17 14 13 15 13 13 8 9 8 8 5 10 10 11 11 10 10 9 11 9 9 5 4 2 5 9 10 9 10 12 11 9 10 11 10 12 12 13 13 13
17 15 15 15 13 11 13 10 14 11 9 12 8 8 11 11 13 11 13 13 11 11 10 8 7 9 8 8 8 7 9 10 8 11 10 7 8 9 8 8 9 10 11
17 15 15 14 9 10 8 9 9 9 9 11 8 8 7 14 14 15 12 13 10 11 9 6 8 5 5 6 7 6 8 8 8 6 8 7 6 4 5 5 6 7 7
18 17 16 14 12 12 6 9 8 8 9 8 9 10 11 11 11 13 11 11 11 10 9 8 6 4 1 6 6 6 5 7 6 4 5 5 3 4 4 2 3 3 4
18 17 17 14 13 12 11 9 8 8 9 9 12 10 8 11 9 13 12 11 10 9 7 6 5 4 4 5 4 5 3 4 5 3 2 2 3 1 4 3 3 3 2
17 17 16 15 14 13 12 10 7 7 10 9 10 9 8 10 10 11 12 11 11 10 9 8 6 3 3 3 3 3 3 1 3 1 2 3 4 1 4 2 7 8 6
17 17 16 15 16 13 11 10 7 7 10 11 11 11 10 10 9 7 11 11 9 8 5 6 3 1 4 1 6 3 0 2 2 2 2 2 3 3 3 5 7 10 5
19 18 17 16 16 14 12 8 11 9 10 11 10 15 11 10 9 8 8 8 8 7 7 3 4 1 5 4 11 5 2 3 2 2 2 3 2 3 4 4 7 10 8
21 20 19 17 17 16 15 13 12 12 11 10 12 12 10 10 9 7 10 8 7 5 9 5 4 3 4 2 8 4 3 3 1 2 3 3 2 4 4 5 7 7 8
23 22 20 19 18 16 15 11 9 11 13 15 12 11 10 10 10 7 8 10 7 9 4 4 3 4 2 2 8 9 1 6 5 6 4 3 4 4 4 5 5 7 7
25 23 22 20 20 18 14 11 7 3 11 10 10 10 10 11 10 7 8 4 5 3 10 6 4 4 8 2 2 6 5 6 13 4 2 3 3 4 4 4 5 5 7
26 24 22 21 21 19 16 14 13 14 12 15 13 16 13 12 11 9 9 7 6 7 2 5 5 3 3 8 1 2 3 4 5 4 0 3 3 2 4 4 4 4 5
26 26 24 23 22 21 19 13 17 18 14 13 12 15 11 12 10 10 9 8 6 6 7 6 4 5 5 5 7 5 2 5 6 4 6 7 5 3 3 4 4 5 5
27 26 25 24 22 21 20 15 18 17 11 15 11 11 14 14 12 10 11 9 7 6 5 7 8 7 7 5 5 6 7 7 5 6 7 9 5 6 6 5 5 6 7
Wind_Direction
126 131 129 129 117 113 114 114 111 105 97 98 100 103 102 95 95 95 95 91 89 91 89 87 89 89 89 93 92 89 84 86 90 91 88 89 83 79 84 87 79 81 82
130 132 132 137 129 119 117 113 110 107 98 97 102 103 107 100 95 93 95 98 101 89 83 88 87 88 88 87 91 88 88 92 94 98 89 81 77 74 75 87 92 83 86
120 130 128 138 139 133 122 121 114 107 105 102 104 102 106 105 100 96 93 92 91 90 93 91 85 87 85 83 83 87 91 92 93 116 100 75 74 73 73 78 81 86 85
121 131 130 131 132 138 130 125 119 112 111 113 113 110 110 104 102 100 99 97 96 93 91 89 88 88 85 82 86 86 89 84 65 62 65 87 74 72 75 73 77 82 77
140 121 128 120 122 136 127 126 130 128 119 115 110 107 106 103 100 97 98 101 98 99 97 95 91 93 84 81 81 86 87 79 77 71 70 64 70 68 71 81 67 75 91
104 114 123 124 121 126 127 120 120 120 120 113 112 106 104 101 99 101 102 102 102 106 102 98 99 92 80 78 89 90 89 65 62 77 92 67 66 66 62 66 66 69 70
127 121 122 122 119 119 117 118 119 119 118 115 114 111 104 105 107 107 104 107 109 108 103 99 94 95 86 84 81 96 86 74 86 85 74 65 67 70 65 64 63 62 61
122 120 122 121 120 118 116 115 119 120 118 118 115 115 116 111 109 109 110 108 105 105 104 97 95 93 85 78 84 99 102 87 79 84 77 69 61 58 57 56 55 55 58
126 124 131 127 124 118 116 117 117 119 123 124 120 117 116 115 116 117 111 109 106 110 106 98 98 94 91 83 83 93 85 87 100 91 70 63 60 58 61 63 63 63 64
136 133 130 133 130 131 121 123 122 125 129 129 127 128 130 131 128 128 117 113 110 111 106 109 103 100 93 85 93 93 87 54 87 81 66 69 71 73 73 68 66 64 60
149 131 138 130 138 134 132 140 124 131 133 133 131 140 147 143 142 132 145 125 118 119 122 111 111 116 109 94 91 104 84 69 81 72 71 75 75 77 77 73 68 66 64
143 150 141 142 139 146 127 146 133 135 143 142 150 154 145 127 118 145 142 136 135 136 133 120 136 149 149 147 107 125 103 81 86 81 86 78 80 76 72 70 68 71 69
146 150 137 135 155 135 127 149 145 131 145 134 123 91 118 125 135 139 139 143 145 137 133 136 172 228 162 75 70 79 89 76 92 85 89 78 74 77 73 69 68 67 67
149 146 145 141 132 138 134 153 153 146 154 136 129 142 122 126 137 142 149 146 154 171 141 174 115 87 96 63 67 90 72 79 74 103 89 69 77 79 81 75 70 68 67
152 153 135 142 134 130 154 148 136 148 149 122 135 136 166 114 144 140 146 150 160 129 147 140 125 106 130 98 85 47 80 68 82 82 122 70 61 83 88 78 63 61 61
155 157 144 153 152 155 139 142 143 94 121 143 124 101 109 121 114 129 142 144 138 146 143 131 148 161 14 104 101 82 45 80 68 25 85 148 47 54 47 43 38 42 38
162 161 155 160 160 158 145 163 167 157 150 140 116 127 119 124 141 143 136 143 144 129 129 126 162 154 145 135 113 98 99 67 54 41 19 49 231 233 11 7 346 315 302
166 161 163 164 159 162 158 169 167 146 137 134 140 145 142 139 143 133 149 140 136 145 158 153 190 124 95 87 80 37 64 43 38 59 31 7 12 257 270 283 343 325 292
164 163 166 161 163 163 161 171 162 160 156 141 140 139 149 154 165 166 141 133 175 162 153 159 137 16 125 240 188 141 121 348 339 56 333 316 283 313 338 263 311 320 307
164 167 167 168 160 166 166 179 159 175 158 149 151 136 149 157 168 179 141 155 188 167 143 125 40 201 6 7 341 47 285 298 3 313 321 279 276 294 291 286 304 293 291
168 171 169 171 158 171 166 183 165 173 173 140 119 124 151 152 163 190 150 162 219 151 71 145 185 201 238 78 274 339 171 177 244 46 39 0 352 299 301 285 286 301 304
171 173 174 176 170 180 177 174 202 187 182 156 173 148 171 164 161 185 157 171 210 138 152 177 240 265 258 22 343 293 319 167 55 44 32 13 4 331 321 306 296 289 288
175 177 177 180 176 184 179 174 190 242 159 157 134 159 169 167 170 172 183 202 184 231 173 179 193 277 321 120 17 338 324 28 321 117 87 27 10 346 340 322 300 292 284
181 183 179 183 181 189 181 170 186 196 172 185 182 157 158 170 174 175 179 192 195 232 69 187 213 267 287 314 55 143 329 345 335 327 166 138 198 332 342 330 317 305 286
188 184 185 188 189 191 200 191 174 197 190 177 187 150 172 174 187 187 181 185 196 210 208 232 183 212 238 263 301 318 288 265 212 283 306 340 330 325 324 309 320 324 320
190 189 187 184 193 196 195 208 195 210 206 186 201 167 196 184 189 198 188 191 203 209 206 210 214 222 237 267 282 298 285 302 299 302 293 300 324 308 322 291 293 312 318